Time,TemperatureF,DewpointF,PressureIn,WindDirection,WindDirectionDegrees,WindSpeedMPH,WindSpeedGustMPH,Humidity,HourlyPrecipIn,Conditions,Clouds,dailyrainin,SoftwareType,DateUTC
2013-06-30 00:00:00,74.1,66.0,29.81,NW,316,0.0,0.0,75,0.00,,,0.00,weatherlink.com 1.10,2013-06-30 05:00:00,
2013-06-30 00:15:00,73.8,65.0,29.81,NW,316,0.0,0.0,75,0.00,,,0.00,weatherlink.com 1.10,2013-06-30 05:15:00,
2013-06-30 00:30:00,73.5,66.0,29.81,NW,316,0.0,0.0,76,0.00,,,0.00,weatherlink.com 1.10,2013-06-30 05:30:00,
2013-06-30 00:45:00,73.0,65.0,29.81,NW,316,0.0,0.0,75,0.00,,,0.00,weatherlink.com 1.10,2013-06-30 05:45:00,
2013-06-30 01:01:00,72.7,65.0,29.81,NW,316,0.0,0.0,77,0.00,,,0.00,weatherlink.com 1.10,2013-06-30 06:01:00,
2013-06-30 01:16:00,72.7,67.0,29.81,NW,316,0.0,0.0,81,0.00,,,0.00,weatherlink.com 1.10,2013-06-30 06:16:00,
2013-06-30 01:31:00,72.2,66.0,29.81,NW,316,0.0,0.0,82,0.00,,,0.00,weatherlink.com 1.10,2013-06-30 06:31:00,
2013-06-30 01:46:00,71.6,66.0,29.81,NW,316,0.0,0.0,81,0.00,,,0.00,weatherlink.com 1.10,2013-06-30 06:46:00,
2013-06-30 02:01:00,71.4,66.0,29.80,NW,316,0.0,0.0,82,0.00,,,0.00,weatherlink.com 1.10,2013-06-30 07:01:00,
2013-06-30 02:16:00,71.1,66.0,29.80,NW,316,0.0,0.0,83,0.00,,,0.00,weatherlink.com 1.10,2013-06-30 07:16:00,
2013-06-30 02:31:00,70.6,66.0,29.80,NW,316,0.0,0.0,84,0.00,,,0.00,weatherlink.com 1.10,2013-06-30 07:31:00,
2013-06-30 02:46:00,69.9,65.0,29.80,NW,316,0.0,0.0,84,0.00,,,0.00,weatherlink.com 1.10,2013-06-30 07:46:00,
2013-06-30 03:01:00,69.3,64.0,29.80,NW,316,0.0,0.0,84,0.00,,,0.00,weatherlink.com 1.10,2013-06-30 08:01:00,
2013-06-30 03:16:00,68.7,64.0,29.80,NW,316,0.0,0.0,85,0.00,,,0.00,weatherlink.com 1.10,2013-06-30 08:16:00,
2013-06-30 03:31:00,68.4,64.0,29.79,NW,316,0.0,0.0,86,0.00,,,0.00,weatherlink.com 1.10,2013-06-30 08:31:00,
2013-06-30 03:46:00,67.9,64.0,29.79,NW,316,0.0,0.0,86,0.00,,,0.00,weatherlink.com 1.10,2013-06-30 08:46:00,
2013-06-30 04:01:00,67.2,63.0,29.79,NW,316,0.0,0.0,86,0.00,,,0.00,weatherlink.com 1.10,2013-06-30 09:01:00,
2013-06-30 04:16:00,66.9,63.0,29.79,NW,316,0.0,0.0,87,0.00,,,0.00,weatherlink.com 1.10,2013-06-30 09:16:00,
2013-06-30 04:31:00,66.6,63.0,29.79,NW,316,0.0,0.0,87,0.00,,,0.00,weatherlink.com 1.10,2013-06-30 09:31:00,
2013-06-30 04:46:00,66.3,62.0,29.79,NW,316,0.0,0.0,87,0.00,,,0.00,weatherlink.com 1.10,2013-06-30 09:46:00,
2013-06-30 05:01:00,66.0,62.0,29.79,NW,316,0.0,0.0,87,0.00,,,0.00,weatherlink.com 1.10,2013-06-30 10:01:00,
2013-06-30 05:16:00,65.6,62.0,29.79,NW,316,0.0,0.0,87,0.00,,,0.00,weatherlink.com 1.10,2013-06-30 10:16:00,
2013-06-30 05:31:00,65.4,62.0,29.79,NW,316,0.0,0.0,88,0.00,,,0.00,weatherlink.com 1.10,2013-06-30 10:31:00,
2013-06-30 05:46:00,65.2,61.0,29.79,NW,316,0.0,0.0,87,0.00,,,0.00,weatherlink.com 1.10,2013-06-30 10:46:00,
2013-06-30 06:01:00,65.0,61.0,29.80,NW,316,0.0,0.0,88,0.00,,,0.00,weatherlink.com 1.10,2013-06-30 11:01:00,
2013-06-30 06:16:00,64.8,61.0,29.80,NW,316,0.0,0.0,88,0.00,,,0.00,weatherlink.com 1.10,2013-06-30 11:16:00,
2013-06-30 06:31:00,64.9,61.0,29.80,NW,316,0.0,0.0,88,0.00,,,0.00,weatherlink.com 1.10,2013-06-30 11:31:00,
2013-06-30 06:46:00,65.1,62.0,29.81,NW,316,0.0,0.0,89,0.00,,,0.00,weatherlink.com 1.10,2013-06-30 11:46:00,
2013-06-30 07:01:00,65.2,62.0,29.82,NW,316,0.0,0.0,88,0.00,,,0.00,weatherlink.com 1.10,2013-06-30 12:01:00,
2013-06-30 07:16:00,65.3,62.0,29.82,NW,316,0.0,0.0,88,0.00,,,0.00,weatherlink.com 1.10,2013-06-30 12:16:00,
2013-06-30 07:31:00,65.6,62.0,29.82,NW,316,0.0,0.0,89,0.00,,,0.00,weatherlink.com 1.10,2013-06-30 12:31:00,
2013-06-30 07:46:00,66.6,63.0,29.82,NW,316,0.0,0.0,89,0.00,,,0.00,weatherlink.com 1.10,2013-06-30 12:46:00,
2013-06-30 08:01:00,67.8,64.0,29.82,NW,316,0.0,0.0,88,0.00,,,0.00,weatherlink.com 1.10,2013-06-30 13:01:00,
2013-06-30 08:16:00,69.4,66.0,29.83,NW,316,0.0,0.0,88,0.00,,,0.00,weatherlink.com 1.10,2013-06-30 13:16:00,
2013-06-30 08:31:00,72.3,67.0,29.83,NW,316,0.0,0.0,82,0.00,,,0.00,weatherlink.com 1.10,2013-06-30 13:31:00,
2013-06-30 08:46:00,75.4,65.0,29.82,WNW,290,0.0,0.0,71,0.00,,,0.00,weatherlink.com 1.10,2013-06-30 13:46:00,
2013-06-30 09:01:00,77.4,66.0,29.82,WNW,290,0.0,0.0,69,0.00,,,0.00,weatherlink.com 1.10,2013-06-30 14:01:00,
2013-06-30 09:16:00,79.6,67.0,29.83,WNW,285,0.0,0.0,65,0.00,,,0.00,weatherlink.com 1.10,2013-06-30 14:16:00,
2013-06-30 09:32:00,81.4,66.0,29.84,North,5,0.0,0.0,60,0.00,,,0.00,weatherlink.com 1.10,2013-06-30 14:32:00,
2013-06-30 09:47:00,83.7,65.0,29.84,NW,313,2.0,11.0,54,0.00,,,0.00,weatherlink.com 1.10,2013-06-30 14:47:00,
2013-06-30 10:02:00,84.3,63.0,29.84,SW,235,2.0,6.0,49,0.00,,,0.00,weatherlink.com 1.10,2013-06-30 15:02:00,
2013-06-30 10:17:00,85.7,62.0,29.84,NNW,345,0.0,6.0,45,0.00,,,0.00,weatherlink.com 1.10,2013-06-30 15:17:00,
2013-06-30 10:32:00,86.2,62.0,29.84,North,7,0.0,6.0,44,0.00,,,0.00,weatherlink.com 1.10,2013-06-30 15:32:00,
2013-06-30 10:47:00,87.7,61.0,29.84,West,267,4.0,7.0,41,0.00,,,0.00,weatherlink.com 1.10,2013-06-30 15:47:00,
2013-06-30 11:02:00,87.9,61.0,29.85,West,281,5.0,7.0,41,0.00,,,0.00,weatherlink.com 1.10,2013-06-30 16:02:00,
2013-06-30 11:17:00,88.6,61.0,29.85,NNE,23,0.0,2.0,40,0.00,,,0.00,weatherlink.com 1.10,2013-06-30 16:17:00,
2013-06-30 11:32:00,89.9,61.0,29.84,West,259,2.0,6.0,38,0.00,,,0.00,weatherlink.com 1.10,2013-06-30 16:32:00,
2013-06-30 11:47:00,90.5,61.0,29.84,WNW,290,1.0,9.0,37,0.00,,,0.00,weatherlink.com 1.10,2013-06-30 16:47:00,
2013-06-30 12:02:00,90.4,57.0,29.84,WNW,298,1.0,11.0,32,0.00,,,0.00,weatherlink.com 1.10,2013-06-30 17:02:00,
2013-06-30 12:17:00,91.1,61.0,29.83,NW,311,5.0,9.0,37,0.00,,,0.00,weatherlink.com 1.10,2013-06-30 17:17:00,
2013-06-30 12:32:00,90.6,61.0,29.83,NW,310,1.0,11.0,37,0.00,,,0.00,weatherlink.com 1.10,2013-06-30 17:32:00,
2013-06-30 12:47:00,90.7,62.0,29.82,WNW,282,0.0,6.0,39,0.00,,,0.00,weatherlink.com 1.10,2013-06-30 17:47:00,
2013-06-30 13:02:00,91.3,59.0,29.82,NW,305,7.0,11.0,34,0.00,,,0.00,weatherlink.com 1.10,2013-06-30 18:02:00,
2013-06-30 13:17:00,90.9,58.0,29.82,WNW,286,3.0,12.0,33,0.00,,,0.00,weatherlink.com 1.10,2013-06-30 18:17:00,
2013-06-30 13:32:00,92.0,58.0,29.81,NW,317,6.0,14.0,32,0.00,,,0.00,weatherlink.com 1.10,2013-06-30 18:32:00,
2013-06-30 13:47:00,92.5,58.0,29.81,NNW,345,6.0,19.0,31,0.00,,,0.00,weatherlink.com 1.10,2013-06-30 18:47:00,
2013-06-30 14:02:00,93.1,55.0,29.81,WNW,293,7.0,13.0,28,0.00,,,0.00,weatherlink.com 1.10,2013-06-30 19:02:00,
2013-06-30 14:17:00,92.9,56.0,29.81,NW,316,10.0,14.0,29,0.00,,,0.00,weatherlink.com 1.10,2013-06-30 19:17:00,
2013-06-30 14:32:00,93.8,56.0,29.81,NW,323,1.0,10.0,28,0.00,,,0.00,weatherlink.com 1.10,2013-06-30 19:32:00,
2013-06-30 14:47:00,93.9,56.0,29.80,SW,233,4.0,10.0,28,0.00,,,0.00,weatherlink.com 1.10,2013-06-30 19:47:00,
2013-06-30 15:02:00,93.3,55.0,29.80,WSW,257,2.0,14.0,27,0.00,,,0.00,weatherlink.com 1.10,2013-06-30 20:02:00,
2013-06-30 15:17:00,93.4,57.0,29.80,WNW,296,3.0,11.0,29,0.00,,,0.00,weatherlink.com 1.10,2013-06-30 20:17:00,
2013-06-30 15:32:00,94.0,55.0,29.80,NW,305,3.0,9.0,27,0.00,,,0.00,weatherlink.com 1.10,2013-06-30 20:32:00,
2013-06-30 15:47:00,93.6,56.0,29.79,WNW,284,8.0,10.0,28,0.00,,,0.00,weatherlink.com 1.10,2013-06-30 20:47:00,
2013-06-30 16:02:00,93.9,56.0,29.79,NW,311,0.0,10.0,28,0.00,,,0.00,weatherlink.com 1.10,2013-06-30 21:02:00,
2013-06-30 16:17:00,93.9,57.0,29.79,WNW,286,0.0,9.0,29,0.00,,,0.00,weatherlink.com 1.10,2013-06-30 21:17:00,
2013-06-30 16:32:00,93.9,60.0,29.79,WNW,292,3.0,7.0,32,0.00,,,0.00,weatherlink.com 1.10,2013-06-30 21:32:00,
2013-06-30 16:47:00,93.5,58.0,29.79,WNW,296,6.0,14.0,30,0.00,,,0.00,weatherlink.com 1.10,2013-06-30 21:47:00,
2013-06-30 17:02:00,94.0,58.0,29.78,NW,310,0.0,8.0,30,0.00,,,0.00,weatherlink.com 1.10,2013-06-30 22:02:00,
2013-06-30 17:17:00,92.6,59.0,29.78,NW,305,2.0,8.0,32,0.00,,,0.00,weatherlink.com 1.10,2013-06-30 22:17:00,
2013-06-30 17:32:00,92.6,59.0,29.78,NW,304,0.0,7.0,32,0.00,,,0.00,weatherlink.com 1.10,2013-06-30 22:32:00,
2013-06-30 17:47:00,91.3,58.0,29.78,WNW,289,6.0,7.0,32,0.00,,,0.00,weatherlink.com 1.10,2013-06-30 22:47:00,
2013-06-30 18:02:00,92.4,59.0,29.78,WNW,292,0.0,6.0,33,0.00,,,0.00,weatherlink.com 1.10,2013-06-30 23:02:00,
2013-06-30 18:17:00,92.1,61.0,29.78,WNW,285,0.0,7.0,35,0.00,,,0.00,weatherlink.com 1.10,2013-06-30 23:17:00,
2013-06-30 18:32:00,91.3,59.0,29.78,WNW,296,1.0,7.0,34,0.00,,,0.00,weatherlink.com 1.10,2013-06-30 23:32:00,
2013-06-30 18:47:00,89.9,60.0,29.78,North,3,0.0,8.0,36,0.00,,,0.00,weatherlink.com 1.10,2013-06-30 23:47:00,
2013-06-30 19:02:00,89.5,58.0,29.79,WNW,293,0.0,7.0,34,0.00,,,0.00,weatherlink.com 1.10,2013-07-01 00:02:00,
2013-06-30 19:17:00,88.3,57.0,29.79,WNW,286,0.0,6.0,35,0.00,,,0.00,weatherlink.com 1.10,2013-07-01 00:17:00,
2013-06-30 19:32:00,87.0,58.0,29.79,North,350,2.0,4.0,38,0.00,,,0.00,weatherlink.com 1.10,2013-07-01 00:32:00,
2013-06-30 19:47:00,85.5,58.0,29.80,WNW,289,0.0,5.0,39,0.00,,,0.00,weatherlink.com 1.10,2013-07-01 00:47:00,
2013-06-30 20:02:00,84.4,58.0,29.81,WNW,293,0.0,3.0,41,0.00,,,0.00,weatherlink.com 1.10,2013-07-01 01:02:00,
2013-06-30 20:17:00,83.2,57.0,29.82,West,274,0.0,3.0,41,0.00,,,0.00,weatherlink.com 1.10,2013-07-01 01:17:00,
2013-06-30 20:32:00,81.9,58.0,29.82,West,277,0.0,4.0,44,0.00,,,0.00,weatherlink.com 1.10,2013-07-01 01:32:00,
2013-06-30 20:47:00,80.8,57.0,29.82,West,277,0.0,1.0,45,0.00,,,0.00,weatherlink.com 1.10,2013-07-01 01:47:00,
2013-06-30 21:02:00,79.7,59.0,29.83,West,277,0.0,0.0,49,0.00,,,0.00,weatherlink.com 1.10,2013-07-01 02:02:00,
2013-06-30 21:17:00,78.7,58.0,29.83,West,277,0.0,0.0,49,0.00,,,0.00,weatherlink.com 1.10,2013-07-01 02:17:00,
2013-06-30 21:32:00,77.3,58.0,29.83,West,277,0.0,0.0,52,0.00,,,0.00,weatherlink.com 1.10,2013-07-01 02:32:00,
2013-06-30 21:47:00,76.1,60.0,29.83,West,277,0.0,0.0,58,0.00,,,0.00,weatherlink.com 1.10,2013-07-01 02:47:00,
2013-06-30 22:02:00,75.0,61.0,29.84,West,277,0.0,0.0,61,0.00,,,0.00,weatherlink.com 1.10,2013-07-01 03:02:00,
2013-06-30 22:17:00,74.1,59.0,29.84,West,277,0.0,0.0,60,0.00,,,0.00,weatherlink.com 1.10,2013-07-01 03:17:00,
2013-06-30 22:32:00,73.2,59.0,29.84,West,277,0.0,0.0,61,0.00,,,0.00,weatherlink.com 1.10,2013-07-01 03:32:00,
2013-06-30 22:47:00,72.5,60.0,29.85,West,277,0.0,0.0,65,0.00,,,0.00,weatherlink.com 1.10,2013-07-01 03:47:00,
2013-06-30 23:02:00,71.8,60.0,29.85,West,277,0.0,0.0,66,0.00,,,0.00,weatherlink.com 1.10,2013-07-01 04:02:00,
2013-06-30 23:18:00,71.3,61.0,29.86,West,277,0.0,0.0,70,0.00,,,0.00,weatherlink.com 1.10,2013-07-01 04:18:00,
2013-06-30 23:33:00,71.0,59.0,29.86,West,277,0.0,0.0,67,0.00,,,0.00,weatherlink.com 1.10,2013-07-01 04:33:00,
2013-06-30 23:48:00,70.5,60.0,29.86,West,277,0.0,0.0,69,0.00,,,0.00,weatherlink.com 1.10,2013-07-01 04:48:00,